Federal Corporation
Brampton

Jurisdiction: Canada
Source: Corporations Canada

This dataset includes 826 thousand corporation entities registered with Corporations Canada, a division of Innovation, Science and Economic Development Canada. Each corporation is registered with corporation number, corporate name, office address, current status, directors, annual filling dates, etc.

Brampton · Search Result

Corporation Name Office Address Incorporation
12503018 Canada Inc. 21 Gaspe Rd, Brampton, ON L6S 0A6 2020-11-17
12500639 Canada Inc. 2 Bedford Cres, Brampton, ON L6T 1R4 2020-11-17
12501732 Canada Inc. 80 Donna Drive, Brampton, ON L6Z 3T8 2020-11-17
12503115 Canada Inc. 123 Dunlop Court, Brampton, ON L6X 5A6 2020-11-17
Akecdit Import and Export Inc. 908-80 Orenda Crt, Brampton, ON L6W 3M9 2020-11-17
12501899 Canada Inc. 5 Scotchmere Crescent, Brampton, ON L6P 3A7 2020-11-17
Epica Global Trading Inc. 39 Bering Road, Brampton, ON L6P 4C8 2020-11-16
12499274 Canada Inc. 91 Maperton Dr, Brampton, ON L6R 0Z9 2020-11-16
12498987 Canada Inc. 46 Brunetta Way, Brampton, ON L6P 1M9 2020-11-16
Dave Technologies Inc. 90 Yardley Cres, Brampton, ON L6X 5L8 2020-11-16
12500442 Canada Inc. 7 Sutherland Ave, Brampton, ON L6V 2H3 2020-11-16
12497689 Canada Inc. 86 Gallview Lane, Brampton, ON L6P 1S1 2020-11-16
The Comforters 15 Hillpark Trail, Brampton, ON L6S 1R1 2020-11-16
12498766 Canada Inc. 29 Ranchero Drive, Brampton, ON L7A 3C7 2020-11-16
12499169 Canada Inc. 7 Valleyway Drive, Brampton, ON L6X 3C2 2020-11-16
12498235 Canada Inc. 74 Elmcrest Drive, Brampton, ON L6Y 0H8 2020-11-16
12499321 Canada Inc. 112 Corby Crescent, Brampton, ON L6Y 1H1 2020-11-16
Tech Maverick Ltd. 4 Fairlight Street, Brampton, ON L6Z 3W8 2020-11-16
Raen Developments Inc. 41 Ballyshire Drive, Brampton, ON L6V 2P5 2020-11-16
12500035 Canada Inc. 42 Streamline Drive, Brampton, ON L6V 4T2 2020-11-16
12497701 Canada Inc. 94 Provincial Place, Brampton, ON L6S 6C4 2020-11-16
Tobchris Logistics Inc. 9 Trewartha Crescent, Brampton, ON L6Z 1X3 2020-11-16
Xinotech Incorporated 11 Bannister Crescent, Brampton, ON L7A 4H6 2020-11-16
Gill Nav Transportation Inc. 28 Ravenscliffe Court, Brampton, ON L6X 4N8 2020-11-16
12498651 Canada Inc. 96 Masters Green Cres, Brampton, ON L7A 3K5 2020-11-16
909pro Logistics Inc. 4 Vista Green Crescent, Brampton, ON L7A 2R8 2020-11-16
12499240 Canada Inc. 205-49 Hillcrest Avenue, Brampton, ON L6W 4V4 2020-11-16
12499126 Canada Inc. Unit 94 - 200 Veterans Dr, Brampton, ON L7A 4S6 2020-11-16
12496577 Canada Inc. 23 Castlehill Raod, Brampton, ON L6X 4E3 2020-11-15
12495546 Canada Inc. Kenwood Drive, Brampton, ON L6X 4P5 2020-11-14
12495295 Canada Inc. 25 Provost Trail, Brampton, ON L6Y 0C3 2020-11-14
Aryadis Inc. 38 Muscovy Drive, Brampton, ON L7A 4M4 2020-11-14
12495724 Canada Inc. 44 Lanark Circle, Brampton, ON L6X 5L3 2020-11-14
12496224 Canada Inc. 12 Marjorie Court, Brampton, ON L6R 3V2 2020-11-14
12495848 Canada Inc. 101 Boathouse Road, Brampton, ON L7A 5B7 2020-11-14
12496143 Canada Inc. 20 Butterworth Road, Brampton, ON L7A 3Z1 2020-11-14
12496291 Canada Inc. 9900 Mclaughlin Road North, Unit 65, Brampton, ON L6X 0T9 2020-11-14
Shuva Investments Inc. 25 Kensington Road Unit 208, Brampton, ON L6T 3W8 2020-11-14
12494124 Canada Inc. 8 Atria Ave, Brampton, ON L7A 3T3 2020-11-13
12476703 Canada Inc. 23 Balmy Way, Brampton, ON L6P 1L1 2020-11-13
12493543 Canada Inc. 22 Morton Way, Brampton, ON L6Y 2R7 2020-11-13
12492954 Canada Inc. 14 Newton Road, Brampton, ON L6V 2P5 2020-11-13
12493705 Canada Inc. 3 Scotia Drive, Brampton, ON L6Y 2W3 2020-11-13
Pb 26 Records Inc. 44 Fishing Cres, Brampton, ON L6V 4S4 2020-11-13
12494892 Canada Inc. 58 Jessop Drive, Brampton, ON L7A 3N4 2020-11-13
12494141 Canada Inc. 1 Hodgson Street, Brampton, ON L6Y 3G8 2020-11-13
12495198 Canada Inc. 17 Flurry Circle, Brampton, ON L6X 0S8 2020-11-13
Hundal Truck Transport Inc. 7 Monkton Circle, Brampton, ON L6Y 0X1 2020-11-13
12495279 Canada Inc. 21 Blaketon Court, Brampton, ON L6P 1K8 2020-11-13
12494868 Canada Inc. 64 Appleaire Cres, Brampton, ON L6R 0V9 2020-11-13
12494876 Canada Inc. 72 Willow Park Dr, Brampton, ON L6R 2N4 2020-11-13
Ateuz Inc. 154 Cordgrass Cres, Brampton, ON L6R 2A3 2020-11-13
12494191 Canada Inc. 165 Whitwell Drive, Brampton, ON L6P 1L1 2020-11-13
Bkn Transport Ltd. 27 Hot Spring Road, Brampton, ON L6R 3H9 2020-11-13
12494710 Canada Inc. Goreridge Crescent, Brampton, ON L6P 1P2 2020-11-13
12495155 Canada Inc. 32 Portside Crescent, Brampton, ON L6R 0N3 2020-11-13
Somethel Properties Holding Inc. Apt 314 - 95 Charolais Bolvd, Brampton, ON L6Y 2R9 2020-11-13
Kriashi Trading Ltd. 58 Altura Way, Brampton, ON L6P 4A1 2020-11-12
Swift Heating and Cooling Ltd. 74 Snowcap Road, Brampton, ON L6R 1W2 2020-11-12
Zitteen 2 Tropical Court, Brampton, Brampton, ON L6Z 2B9 2020-11-12
12490986 Canada Ltd. 82 Timberlane Dr, Brampton, ON L6Y 4V7 2020-11-12
Xzavia Optimization Incorporated 2 Templehill Road, Brampton, ON L6R 0Z8 2020-11-12
12489945 Canada Inc. 87 Torrance Woods, Brampton, ON L6Y 4L7 2020-11-12
Roxana Textiles Ltd. 9 Sunley Crescent, Brampton, ON L6Y 5B7 2020-11-12
12492334 Canada Inc. 116 Valleycreek Dr, Brampton, ON L6P 2C8 2020-11-12
Siraya Enterprises Ltd. 4 Chilliwack Grove, Brampton, ON L6X 2Y4 2020-11-12
12491681 Canada Inc. 4 Zanetta Crescent, Brampton, ON L6Y 6A3 2020-11-12
12492202 Canada Inc. 7 Argelia Crescent, Brampton, ON L6X 5N5 2020-11-12
Gracious Wood Cabinet Refinishing Inc. 41, Leo Austin Road, Brampton, ON L6P 4C6 2020-11-12
Monkam Communications Inc. 4-41 Woodward Avenue, Brampton, ON L6V 1K3 2020-11-12
12491648 Canada Limited 115 Cadillac Crescent, Brampton, ON L7A 3B5 2020-11-12
12491729 Canada Inc. 46 Meltwater Crescent, Brampton, ON L6P 3V8 2020-11-12
Benny Degoate Inc. 1608-220 Steeles Ave West, Brampton, ON L6Y 2K4 2020-11-12
12488523 Canada Inc. 22 Fenton Way, Brampton, ON L6P 0P5 2020-11-11
12489082 Canada Inc. 16 Nipigon Crt, Brampton, ON L6S 5T5 2020-11-11
12488477 Canada Corporation 13 Brunetta Way, Brampton, ON L6P 1M9 2020-11-11
Shree Shayam Reno Inc. 43 Argyle Cres., Brampton, ON L6T 1M9 2020-11-11
12487578 Canada Inc. 15 Lynbrook Cres, Brampton, ON L6P 2P1 2020-11-11
12487411 Canada Inc. 22 Miracle Trail, Brampton, ON L7A 0G2 2020-11-11
12487136 Canada Inc. 34 Brookview Road, Brampton, ON L6X 2V9 2020-11-11
12487080 Canada Inc. 94 Dewridge Court, Brampton, ON L6R 3B9 2020-11-11
Divinity Social Inc. 20 Woodward Avenue, Brampton, ON L6V 1K1 2020-11-11
12488507 Canada Ltd. 46 Lakecrest Trail, Brampton, ON L6Z 1S6 2020-11-11
12487608 Canada Inc. 8 Burnham Crescent, Brampton, ON L6T 2L2 2020-11-11
Everblüm Essentials Corporation 56 Bruce Beer Drive, Brampton, ON L6V 2W9 2020-11-11
12489571 Canada Inc. 35 Geranium Crescent, Brampton, ON L6Y 1N8 2020-11-11
Sam Sethi Real Estate Inc. 39 Carl Finlay Drive, Brampton, ON L6P 4K1 2020-11-11
12488361 Canada Inc. 79 Gulliver Crescent, Brampton, ON L6S 1T1 2020-11-11
Bristan Buildings Ltd. 70 Bannister Crescent, Brampton, ON L7A 4H3 2020-11-11
12488698 Canada Inc. 9210 Mississauga Road, Brampton, ON L6X 0B4 2020-11-11
Sehar Malik Group Realty Inc. 21 Ezra Cres, Brampton, ON L7A 5A6 2020-11-10
12486687 Canada Inc. 6 Ebury Drive, Brampton, ON L6X 0Z3 2020-11-10
Garderie Le Petit Sapin 44 Kalmia Road, Brampton, ON L6X 3B3 2020-11-10
12484323 Canada Inc. 46 Brisco Street, Brampton, ON L6V 1W8 2020-11-10
Kc Software Solutions Inc. 43 Canarvan Court, Brampton, ON L6Y 4X5 2020-11-10
Mother Earth Realty Brokerage Inc. 16 Lone Oak Avenue, Brampton, ON L6S 5V4 2020-11-10
12486008 Canada Inc. 19 Homewood Street, Brampton, ON L6R 1T2 2020-11-10
12485940 Canada Inc. 18 Coniferous Court, Brampton, ON L6R 1M5 2020-11-10
12486016 Canada Inc. 22 Cutters Crescent, Brampton, ON L6Y 4K1 2020-11-10
Parikh Pharma Ltd. 3 Interlacken Drive, Brampton, ON L6X 0Y1 2020-11-10